Regional Weather Roundup
Issued by NWS Charleston, SC

Current Version | Previous Version | Text Only | Print | Product List | Glossary On
Versions: 1 2 3 4 5 6 7 8 9 10 11 12 13 14 15 16 17 18 19 20 21 22 23 24 25 26 27 28 29 30 31 32 33 34 35 36 37 38 39 40 41 42 43 44 45 46 47 48 49 50
000 ASUS42 KCHS 281410 RWRCHS REGIONAL WEATHER ROUNDUP NATIONAL WEATHER SERVICE CHARLESTON SC 900 AM EST WED JAN 28 2015 NOTE: "FAIR" INDICATES FEW OR NO CLOUDS BELOW 12,000 FEET WITH NO SIGNIFICANT WEATHER AND/OR OBSTRUCTIONS TO VISIBILITY. NOT ALL STATIONS ARE QUALITY CONTROLLED BY THE NATIONAL WEATHER SERVICE. USE DATA WITH CAUTION...ESPECIALLY DEWPOINT OBSERVATIONS. SCZ027-030-031-034>040-042>050-281500- ...SOUTHEAST SOUTH CAROLINA... CITY SKY/WX TMP DP RH WIND PRES REMARKS N CHARLESTON SUNNY 36 18 48 N18G25 30.24R WCI 26 WATERFRONT PRK N/A 37 N/A N/A W17 N/A WCI 28 MOUNT PLEASANT LGT RAIN N/A N/A N/A N8G16 30.23R PINOPOLIS NOT AVBL MONCKS CORNER FAIR 37 18 44 N16G22 30.24R HAZE WCI 28 SUMMERVILLE FAIR 34 27 75 N10 30.25R WCI 26 BEAUFORT MCAS SUNNY 38 26 62 N9 30.25R WCI 31 BEAUFORT ARPT FAIR 37 27 65 N14 30.25R WCI 29 HILTON HEAD IS SUNNY 37 28 70 N12G18 30.24R WCI 30 WALTERBORO SUNNY 36 23 60 N6 30.26R WCI 31 ALLENDALE FAIR 36 27 69 N8 30.26R WCI 29 ...SOUTHERN MIDLANDS AND PEE DEE... CITY SKY/WX TMP DP RH WIND PRES REMARKS GEORGETOWN NOT AVBL KINGSTREE NOT AVBL ORANGEBURG SUNNY 35 20 54 N8 30.26R WCI 29 BARNWELL FAIR 36 28 75 N3 30.27R AIKEN FAIR 34 27 75 CALM 30.28R MANNING FAIR 34 19 55 N9 30.25R WCI 26 COLUMBIA SUNNY 36 18 48 N8 30.27R WCI 30 SUMTER SUNNY 32 14 47 N15 30.24R WCI 22 FLORENCE SUNNY 33 15 47 N13 30.25R WCI 24 MYRTLE BEACH SUNNY 34 16 47 N15 30.23R WCI 24 N MYRTLE BEACH SUNNY 32 17 54 N9 30.21R WCI 24 $$ GAZ063-065-086>088-099>101-113>116-118-119-134>141-150-281500- ...SOUTHEAST GEORGIA... CITY SKY/WX TMP DP RH WIND PRES REMARKS SAVANNAH ARPT SUNNY 38 26 62 N10 30.26R WCI 31 HUNTER AAF SUNNY 40 25 56 N8 30.23R WCI 34 FORT STEWART SUNNY 39 30 70 N9 30.24R WCI 32 STATESBORO SUNNY 37 32 82 N6 30.26R WCI 32 SYLVANIA SUNNY 36 31 81 N6 30.27R WCI 31 CLAXTON FAIR 37 32 81 N5 30.26R WCI 34 ...CSRA...CENTRAL AND FAR SOUTHEAST GEORGIA... CITY SKY/WX TMP DP RH WIND PRES REMARKS THOMSON SUNNY 32 31 97 CALM 30.30S AUGUSTA-BUSH SUNNY 35 28 75 N6 30.28R WCI 30 AUGUSTA-DANIEL SUNNY 36 22 56 N8 30.27R WCI 30 SWAINSBORO FAIR 37 28 70 N5 30.27R WCI 34 VIDALIA SUNNY 36 32 87 N7 30.25R WCI 30 EASTMAN FAIR 34 34 100 N3 30.28S HAZLEHURST FAIR 37 33 85 N6 30.25R WCI 33 ALMA SUNNY 38 30 73 N6 30.25R WCI 33 WAYCROSS SUNNY 42 36 78 N8 30.25R JESUP FAIR 41 34 75 N6 30.25R BAXLEY FAIR 37 32 81 N7 30.25R WCI 32 BRUNSWICK SUNNY 43 30 61 N7 30.25R SAINT SIMONS SUNNY 41 29 62 N14 30.23R $$ SCZ027-028-034-036>038-045-046-048>050-GAZ119-141-281500- ...LAKE AND SUPPLEMENTAL COASTAL OBSERVATIONS... STATION/POSITION TIME TEMP WIND PRES WAVE SWELL AIR SEA DIR/SP/G HT/PER HT/PER/DIR (UTC) (F) (DEG/KT/KT) (MB) (FT/S) (FT/S/D) UPR LAKE MARION NOT AVBL WINYAH BAY NOT AVBL LAKE MURRAY 1300 32 340/ 2/ 5 1023.4R ACE BASIN NERRS NOT AVBL FORT PULASKI 1300 35 52 330/ 10/ 12 1023.7R SAPELO ISLAND 1300 37 360/ 10 1023.0R $$ ANZ835-935-AMZ111-154-330-350-352-354-370-450-454-472-281500- ...C-MAN AND BUOY OBSERVATIONS... STATION/POSITION TIME TEMP WIND PRES WAVE SWELL AIR SEA DIR/SP/G HT/PER HT/PER/DIR (UTC) (F) (DEG/KT/KT) (MB) (FT/S) (FT/S/D) BUOY 41004 1350 42 67 350/ 21/ 27 1021.4R 6/ 6 3/11 BUOY 41008 1350 45 54 10/ 19/ 23 1022.7R 3/ 4 2/ 60/11 FOLLY BEACH CMAN 1300 37 360/ 12/ 16 1022.9R CAPERS NEARSHORE 1300 37 10/ 19/ 23 N/A FRIPP NEARSHORE 1300 40 10/ 17/ 21 N/A STATION/POSITION TIME TEMP WIND PRES WAVE SWELL AIR SEA DIR/SP/G HT/PER HT/PER/DIR (UTC) (F) (DEG/KT/KT) (MB) (FT/S) (FT/S/D) 5E ST. MARYS GA 1322 57 N/A 4/ 5 FRYING PAN BUOY 1350 39 64 350/ 19/ 25 1021.7R 6/ 5 2/100/13 BUOY 41025 1350 38 68 350/ 23/ 31 1018.7R 8/12 7/ 50/12 CAPE LOOKOUT NC 1300 33 340/ 17/ 20 1019.8R BUOY 41002 1350 57 71 300/ 21/ 29 1016.0R 10/ 8 5/14 BUOY 41010 1320 62 75 320/ 17/ 21 1018.6R ST AUGUSTINE FL 1400 42 340/ 12/ 14 1023.4R $$

USA.gov is the U.S. government's official web portal to all federal, state and local government web resources and services.